SCP
0 0 0 0 0 0 0 0 0 0 0 0 0 0 0 0 0 0 0 0 0 0 0 0 0 0 0 0 0 0 0 0 0 0 0 0 0 0 0 0 0 0 0
0 0 0 0 0 0 0 0 0 0 0 0 0 0 0 0 0 0 0 0 0 0 0 0 0 0 0 0 0 0 0 0 0 0 0 0 0 0 0 0 0 0 0
0 0 0 0 0 0 0 0 0 0 0 0 0 0 0 0 0 0 0 0 0 0 0 0 0 0 0 0 0 0 0 0 0 0 0 -0 0 0 0 0 0 0 0
1 0 0 0 0 0 0 0 0 0 0 0 0 0 0 0 0 0 0 0 0 0 0 0 0 0 0 0 0 0 0 0 0 0 -0 -0 -0 0 0 0 0 0 0
1 1 1 1 1 0 0 0 0 0 0 0 0 0 0 0 0 0 0 0 0 0 0 0 0 0 0 0 0 0 0 0 0 0 -0 -0 -0 0 0 0 0 0 0
1 1 1 1 1 0 0 0 0 0 0 0 0 0 0 0 0 0 0 0 0 0 0 0 0 0 0 0 0 0 0 0 0 0 -0 -0 0 0 0 0 0 0 0
1 1 1 1 1 1 0 0 0 0 0 0 0 0 0 0 0 0 0 0 0 0 0 0 0 0 0 0 0 0 0 0 0 0 0 -0 0 0 0 0 0 0 0
1 1 1 1 1 0 0 0 0 0 0 0 0 0 0 0 0 0 0 0 0 0 0 0 0 0 0 0 0 0 0 0 0 0 0 0 0 0 0 0 0 0 0
1 1 1 1 0 0 0 0 0 0 0 0 0 0 0 0 0 0 0 0 0 0 0 0 0 0 0 0 0 0 0 0 0 0 0 0 0 0 0 0 0 0 0
1 1 1 0 0 0 0 0 0 0 0 0 0 0 0 0 0 0 0 0 0 0 0 0 0 0 0 0 0 0 0 0 0 0 0 0 0 0 0 0 0 0 0
1 1 0 0 0 0 0 0 0 0 0 0 0 0 0 0 0 0 0 0 0 0 0 0 0 0 0 0 0 0 0 0 0 0 0 0 0 0 0 0 0 0 0
0 0 0 0 0 0 0 0 0 0 0 0 0 0 0 0 0 0 0 0 0 0 0 0 0 0 0 0 0 0 0 0 0 0 0 0 0 0 0 0 0 0 0
0 0 0 0 0 0 0 0 0 0 0 0 0 0 0 0 0 0 0 0 0 0 0 0 0 0 0 0 0 0 0 0 0 0 0 0 0 0 0 0 0 0 0
0 0 0 0 0 0 0 0 0 0 0 0 0 0 0 0 0 0 0 0 0 0 0 0 0 0 0 0 0 0 0 0 0 0 0 0 0 0 0 0 0 0 0
0 0 0 0 0 0 0 0 0 0 0 0 0 0 0 0 0 0 0 0 0 0 0 0 0 0 0 0 0 0 0 0 0 0 0 0 0 0 0 0 0 0 0
0 0 0 0 0 0 0 0 0 0 0 0 0 0 0 0 0 0 0 0 0 0 0 0 0 0 0 0 0 0 0 0 0 0 0 0 0 0 0 0 0 0 0
0 0 0 0 0 0 0 0 0 0 0 0 0 0 0 0 0 0 0 0 0 0 0 0 0 0 0 0 0 0 0 0 0 0 0 0 0 0 0 0 0 0 0
0 0 0 0 0 0 0 0 0 0 0 0 0 0 0 0 0 0 0 0 0 0 0 0 0 0 0 0 0 0 0 0 0 0 0 0 0 0 0 0 0 0 0
0 0 0 0 0 0 0 0 0 0 0 0 0 0 0 0 0 0 0 0 0 0 0 0 0 0 0 0 0 0 0 0 0 0 0 0 0 0 0 0 0 0 0
0 0 0 0 0 0 0 0 0 0 0 0 0 0 0 0 0 0 0 0 0 0 0 0 0 0 0 0 0 0 0 0 0 0 0 0 0 0 0 0 0 0 0
0 0 0 0 0 0 0 0 0 0 0 0 0 0 0 0 0 0 0 0 0 0 0 0 0 0 0 0 0 0 0 0 0 0 0 0 0 0 0 0 0 0 0
0 0 0 0 0 0 0 0 0 0 0 0 0 0 0 0 0 0 0 0 0 0 0 0 0 0 0 0 0 0 0 0 0 0 0 0 0 0 0 0 0 0 0
0 0 0 0 0 0 0 0 0 0 0 0 0 0 0 0 0 0 0 0 0 0 0 0 0 0 0 0 0 0 0 0 0 0 0 0 0 0 0 0 0 0 0
0 0 0 0 0 0 0 0 0 0 0 0 0 0 0 0 0 0 0 0 0 0 0 0 0 0 0 0 0 0 0 0 0 0 0 0 0 0 0 0 0 0 0
0 0 0 0 0 0 0 0 0 0 0 0 0 0 0 0 0 0 0 0 0 0 0 0 0 0 0 0 0 0 0 0 0 0 0 0 0 0 0 0 0 0 0
0 0 0 0 0 0 0 0 0 0 0 0 0 0 0 0 0 0 0 0 0 0 0 0 0 0 0 0 0 0 0 0 0 0 0 0 0 0 0 0 0 0 0
Wind_Speed
6 7 13 14 15 15 16 16 16 16 16 16 16 16 15 15 14 13 13 12 11 11 10 10 10 10 11 11 11 11 12 12 13 13 13 14 14 15 15 16 16 13 17
9 9 14 14 14 15 15 15 15 15 15 15 15 15 15 14 13 13 12 11 11 10 10 10 10 10 10 11 11 12 12 12 13 13 14 13 14 14 15 16 15 11 17
10 8 11 14 14 15 15 15 15 15 15 15 14 14 14 13 13 12 11 11 10 10 10 10 10 10 10 11 11 11 12 12 13 13 12 8 10 14 14 15 16 16 16
10 7 9 15 14 15 14 14 14 14 14 14 13 13 13 12 12 11 11 10 10 10 10 9 10 10 10 10 11 11 11 12 12 12 7 7 8 13 14 15 15 15 16
8 7 9 16 15 14 14 13 13 13 13 13 12 12 12 11 11 10 10 9 9 9 9 9 9 9 9 10 10 10 10 11 11 9 6 6 6 12 14 15 15 15 15
7 6 9 15 14 14 14 13 12 12 12 12 12 11 11 10 10 10 9 9 9 8 8 8 8 9 9 9 9 8 9 10 9 6 6 6 6 11 14 14 14 14 14
7 5 7 13 13 13 13 12 12 12 11 11 11 10 10 9 9 9 9 8 8 8 8 8 8 8 8 8 7 7 8 10 7 6 6 5 6 11 13 14 14 14 14
7 5 6 12 13 12 12 11 11 11 11 10 10 9 9 8 8 8 8 8 7 7 7 7 7 7 7 7 6 6 6 8 8 7 6 6 8 11 13 14 13 13 13
6 5 4 4 7 10 11 10 10 10 10 9 9 9 8 8 8 8 7 7 7 7 7 7 7 7 6 6 5 5 5 7 6 5 7 5 9 12 13 13 13 13 13
5 4 4 3 3 3 5 9 9 9 9 9 8 8 8 8 7 7 6 6 7 6 6 6 7 6 6 6 5 5 5 6 5 5 4 6 11 13 13 13 13 13 13
5 3 2 3 3 2 2 5 6 7 7 7 6 7 5 2 2 3 5 6 7 7 7 6 6 6 6 5 5 5 4 2 4 3 4 8 12 13 14 14 13 13 13
4 3 2 2 3 2 2 2 2 1 2 2 1 2 2 1 1 2 3 6 7 7 7 7 6 5 4 1 2 3 2 3 3 3 4 10 12 14 14 14 14 13 13
4 3 2 2 2 2 1 2 1 1 1 2 1 1 2 2 0 0 0 2 2 4 2 3 3 1 2 2 1 2 2 2 2 3 5 10 12 13 14 14 14 14 14
4 3 2 2 2 2 2 2 2 2 1 1 1 1 1 1 1 0 0 0 0 0 0 1 1 1 2 2 3 3 3 2 2 3 4 10 11 13 14 15 15 14 14
3 2 2 2 2 2 3 2 2 2 1 1 1 1 2 1 1 1 0 0 0 0 1 1 1 1 2 2 2 3 3 4 4 4 3 9 12 13 14 16 16 16 15
2 1 2 3 3 3 3 2 2 2 2 1 1 2 2 1 1 1 1 1 0 0 1 1 1 2 2 1 2 3 3 4 4 4 4 6 11 13 14 15 16 17 17
2 1 2 3 3 4 3 2 2 2 2 2 2 2 2 2 2 2 1 1 1 0 0 1 1 0 1 1 1 2 2 3 3 4 4 3 4 10 13 15 16 16 17
3 2 2 3 4 4 3 3 3 2 3 2 2 2 2 2 2 2 2 1 1 1 1 1 1 0 0 0 1 1 1 2 3 4 3 4 4 4 9 14 14 15 16
3 4 4 4 4 4 4 4 4 3 3 2 2 2 2 2 3 2 2 1 2 2 1 1 1 0 0 1 1 2 2 2 3 3 4 5 4 5 5 8 13 14 16
3 4 5 5 4 4 4 4 3 4 3 3 3 2 3 2 3 3 2 2 2 2 2 1 1 1 0 1 1 1 1 2 2 3 4 4 4 5 6 6 6 9 14
4 5 4 4 3 3 3 3 3 2 2 2 3 4 3 3 3 3 2 2 2 2 2 1 1 2 2 1 1 2 2 1 1 2 2 2 3 4 5 5 5 5 5
4 4 4 4 3 3 2 2 2 2 2 2 2 3 4 3 2 2 2 2 2 2 3 3 2 1 1 2 1 1 2 2 2 1 1 2 2 2 4 5 5 6 5
4 4 4 3 3 3 3 3 3 3 3 3 3 3 4 3 3 3 2 2 2 2 2 2 2 2 1 2 1 1 1 1 2 2 1 1 1 1 2 3 4 5 6
5 4 4 4 3 3 3 4 4 3 2 1 1 2 3 4 4 3 3 3 2 2 2 1 2 1 1 1 1 1 0 1 1 1 2 1 1 1 2 2 3 4 4
6 5 4 4 3 3 3 4 4 3 2 1 1 3 3 3 4 3 3 2 2 1 1 2 1 1 1 1 0 0 1 1 0 1 1 3 2 1 1 2 2 2 3
5 5 5 4 2 2 3 4 4 4 3 2 2 2 2 2 2 3 3 2 1 1 1 1 1 1 1 1 1 0 1 1 0 1 1 2 2 2 2 2 2 2 2
Wind_Direction
147 153 149 142 135 128 124 122 120 120 121 123 126 128 131 132 132 132 129 128 124 120 115 113 111 107 107 108 110 110 110 112 113 114 114 114 115 116 115 113 111 111 114
143 151 150 144 138 133 129 126 124 124 124 126 128 130 132 134 134 135 134 132 129 123 118 116 114 110 109 109 110 111 112 114 115 115 114 114 116 116 115 114 114 118 118
138 145 147 145 142 138 134 131 130 129 129 130 131 133 134 136 137 137 136 134 130 126 123 121 117 114 112 111 112 113 114 114 116 115 110 109 116 118 119 118 119 119 120
138 138 147 147 144 142 139 136 135 135 134 135 136 137 138 140 141 141 138 137 134 132 129 125 122 119 117 116 115 116 118 117 117 115 107 114 121 123 123 123 122 122 122
131 135 153 149 146 143 141 140 140 139 140 140 142 143 143 145 146 144 142 141 140 137 134 130 127 124 122 121 120 120 124 125 120 113 110 109 115 129 128 127 126 125 124
126 136 154 149 149 147 147 147 146 146 146 148 149 150 151 151 150 150 150 148 145 143 140 135 133 130 128 126 125 125 128 128 117 115 115 118 125 134 132 131 129 127 126
133 140 152 152 150 150 152 152 151 152 154 155 156 157 158 158 158 157 157 155 153 151 148 143 141 138 135 131 128 127 131 132 124 127 127 129 137 138 136 135 133 132 131
131 130 142 155 154 154 155 156 156 158 160 161 162 164 165 166 168 169 167 164 163 162 158 154 150 145 140 136 131 129 131 140 138 141 141 144 150 145 143 140 138 137 135
119 116 118 140 155 157 159 161 164 167 167 167 169 172 173 177 179 180 178 177 176 174 170 167 163 157 150 143 139 138 134 134 137 147 154 155 159 155 150 148 146 144 142
98 98 102 112 123 139 158 169 170 171 173 174 177 179 184 187 189 191 189 195 191 189 186 182 177 171 164 158 154 151 138 123 138 153 153 168 168 163 158 156 155 152 150
105 87 85 101 104 114 146 173 171 174 176 175 180 186 183 177 188 201 202 210 208 205 203 201 197 188 181 175 173 162 137 126 146 158 161 178 176 172 167 164 162 160 158
125 112 90 103 107 116 145 121 112 129 130 128 127 147 125 121 193 208 228 224 220 216 217 216 214 205 187 161 176 154 137 154 163 173 182 187 184 180 174 172 170 168 166
131 122 98 101 112 126 115 113 95 82 83 85 93 118 126 127 157 240 261 259 249 227 224 228 220 204 174 167 168 156 168 176 179 188 193 193 190 187 182 179 178 176 175
117 127 126 122 118 122 114 106 96 86 81 85 78 101 121 125 132 130 106 319 335 316 230 241 216 211 190 185 189 189 192 195 192 194 203 199 193 192 190 186 184 184 182
130 144 122 112 112 101 90 96 107 107 115 113 105 101 114 123 133 103 67 39 355 166 197 207 219 218 208 196 199 200 204 209 203 199 207 206 199 197 195 193 191 190 189
103 68 84 86 89 91 96 106 108 111 111 98 80 75 91 100 107 108 102 77 355 303 234 194 203 210 204 194 210 212 215 209 204 202 206 214 208 201 201 201 198 197 195
116 87 106 109 87 90 90 91 90 83 87 80 69 68 83 91 94 93 85 63 13 2 122 119 165 167 205 211 225 230 226 218 206 208 207 205 211 211 207 207 204 202 202
123 96 80 96 87 86 82 77 73 72 76 68 61 59 70 84 90 88 76 45 32 57 72 88 74 95 284 241 238 252 244 236 224 220 213 209 204 213 218 217 210 206 206
120 106 86 82 87 86 79 73 69 65 63 60 55 53 55 68 87 96 81 50 48 64 58 64 68 92 25 310 261 244 245 238 236 233 226 221 212 207 212 222 217 214 212
107 103 100 88 84 90 78 71 63 58 49 50 51 49 54 59 72 82 78 56 58 68 54 54 71 54 50 300 286 283 282 267 249 242 237 226 221 219 214 217 218 222 220
110 99 91 94 82 82 78 78 76 62 40 39 39 44 45 50 63 73 73 61 61 67 56 59 87 60 28 9 39 354 335 311 275 253 247 233 231 227 222 217 214 217 223
122 111 106 98 86 78 88 96 101 100 73 57 27 31 29 33 45 78 82 74 63 66 54 49 62 75 30 33 84 73 354 345 338 314 270 223 232 225 228 229 222 219 223
138 137 125 107 90 83 91 93 82 62 46 32 21 15 7 21 45 66 78 84 75 79 71 48 59 87 71 24 44 123 136 240 310 324 311 297 262 222 238 235 227 226 226
162 148 131 119 104 95 98 104 108 106 96 48 8 1 8 25 42 60 69 73 76 76 69 38 66 67 100 63 16 28 135 176 194 320 324 326 301 251 259 254 246 230 226
160 150 139 123 106 96 97 107 105 102 106 75 46 39 29 21 28 40 58 63 61 57 58 50 62 69 92 124 104 39 58 45 83 178 301 326 332 312 289 272 261 251 235
154 149 147 135 124 114 113 115 123 127 126 104 75 56 32 16 15 23 42 45 42 38 33 34 66 97 114 132 139 156 152 146 182 171 245 297 305 303 300 279 270 270 261